World > North America > United States > Arkansas
Hourly Weather in Grapevine, ArkansasGrapevine, Arkansas Hourly Weather

Grapevine, AR Hourly Weather

Hourly Weather Grapevine, ArkansasHourly Weather in Grapevine, AR
Lat: 34.15N, Lon: 92.32W  ICAO: KPBF
Web Search
Grapevine Weather Warning NWS WEATHER ALERT FOR THE GRAPEVINE, AR AREA - Issued: 324 PM CST Fri Dec 3 2021 Grapevine Weather Warning  

Helpful Tip: You can add this page to Bookmarks by pressing the Ctrl key & d key at the same time. Mac users press command & d.

Feedback

Grapevine Hourly Weather

36 Hour Weather Scroll   °F Click to change Grapevine hourly weather to Imperial units.Click to change Grapevine hourly weather to Metric units. °C
Currently, Overcast, temperature is 65°F18°C, dew point 63°F17°C, humidity 93%. Wind direction is SSW at 7 mph11 km/h with visibility of 8.00 mi13 km. Barometric pressure is 30.03 in1017 mb.

Dec 03
9:00 PM

Dec 03
10:00 PM

Dec 03
11:00 PM

Dec 04
MIDNIGHT

Dec 04
1:00 AM

Dec 04
2:00 AM

Dec 04
3:00 AM

Dec 04
4:00 AM

Dec 04
5:00 AM

Dec 04
6:00 AM

Dec 04
7:00 AM

Dec 04
8:00 AM

Dec 04
9:00 AM

Dec 04
10:00 AM

Dec 04
11:00 AM

Dec 04
NOON

Dec 04
1:00 PM

Dec 04
2:00 PM

Dec 04
3:00 PM

Dec 04
4:00 PM

Dec 04
5:00 PM

Dec 04
6:00 PM

Dec 04
7:00 PM

Dec 04
8:00 PM

Dec 04
9:00 PM

Dec 04
10:00 PM

Dec 04
11:00 PM

Dec 05
MIDNIGHT

Dec 05
1:00 AM

Dec 05
2:00 AM

Dec 05
6:00 AM

Dec 05
7:00 AM

Dec 05
8:00 AM

Dec 05
NOON

Dec 05
1:00 PM

Dec 05
2:00 PM
Mostly Cloudy Mostly Cloudy Cloudy Cloudy Cloudy Cloudy Cloudy Cloudy Cloudy Cloudy Cloudy Cloudy Cloudy Cloudy Cloudy Cloudy Cloudy Cloudy Cloudy Cloudy Cloudy Cloudy Cloudy Cloudy Cloudy Cloudy Cloudy Cloudy Cloudy Cloudy Cloudy Cloudy Cloudy Cloudy Cloudy
Mostly Cloudy Mostly Cloudy Cloudy Cloudy Cloudy Cloudy Cloudy Cloudy Cloudy Cloudy Cloudy Cloudy Cloudy Cloudy Cloudy Cloudy Cloudy Cloudy Cloudy Cloudy Cloudy Cloudy Cloudy Cloudy Cloudy Cloudy Cloudy Cloudy Cloudy Cloudy Cloudy Cloudy Cloudy Cloudy Cloudy
56°F13°C 55°F13°C 55°F13°C 54°F12°C 54°F12°C 54°F12°C 54°F12°C 54°F12°C 55°F13°C 55°F13°C 57°F14°C 58°F14°C 60°F16°C 63°F17°C 66°F19°C 69°F21°C 70°F21°C 71°F22°C 72°F22°C 71°F22°C 69°F21°C 68°F20°C 67°F19°C 66°F19°C 65°F18°C 64°F18°C 62°F17°C 61°F16°C 58°F14°C 56°F13°C 53°F12°C 52°F11°C 51°F11°C 50°F10°C 33°F1°C 17°F-8°C
Rain Rain Rain Rain Rain Rain Rain Rain Rain Rain Rain Rain Rain Rain Rain Rain Rain Rain Rain Rain Rain Rain Rain Rain Rain Rain Rain Rain Rain Rain Rain Rain Rain Rain - -
38% 38% 38% 38% 47% 47% 47% 47% 47% 47% 40% 40% 40% 40% 40% 40% 27% 27% 27% 27% 27% 27% 32% 32% 32% 32% 32% 32% 88% 88% 88% 44% 44% 44% % %
53°F12°C 53°F12°C 52°F11°C 52°F11°C 52°F11°C 53°F12°C 53°F12°C 53°F12°C 54°F12°C 54°F12°C 55°F13°C 56°F13°C 57°F14°C 58°F14°C 59°F15°C 60°F16°C 61°F16°C 61°F16°C 62°F17°C 62°F17°C 62°F17°C 62°F17°C 61°F16°C 61°F16°C 60°F16°C 58°F14°C 57°F14°C 55°F13°C 52°F11°C 49°F9°C 46°F8°C 41°F5°C 36°F2°C 31°F-1°C 21°F-6°C 10°F-12°C
90% 93% 90% 93% 93% 96% 96% 96% 96% 96% 93% 93% 90% 84% 78% 73% 73% 71% 71% 73% 78% 81% 81% 84% 84% 81% 84% 81% 80% 77% 77% 66% 56% 48% 61% 73%
NE NE NE NE NE E E ESE ESE SE SE S S SSE SSE SW SW SSE SSE S S S S S S S SSE SSE SSW NW N SSW SE N N N
5 mph 5 mph 4 mph 4 mph 4 mph 3 mph 3 mph 3 mph 3 mph 3 mph 3 mph 7 mph 7 mph 7 mph 11 mph 11 mph 11 mph 12 mph 12 mph 12 mph 10 mph 10 mph 10 mph 13 mph 13 mph 13 mph 12 mph 12 mph 12 mph 15 mph 15 mph 15 mph 13 mph 13 mph 13 mph mph
10 mi16 km 10 mi16 km 10 mi16 km 10 mi16 km 10 mi16 km 10 mi16 km 10 mi16 km 10 mi16 km 10 mi16 km 10 mi16 km 6 mi10 km 6 mi10 km 5 mi8 km 6 mi10 km 6 mi10 km 10 mi16 km 10 mi16 km 10 mi16 km 10 mi16 km 10 mi16 km 10 mi16 km 10 mi16 km 10 mi16 km 10 mi16 km 10 mi16 km 10 mi16 km 10 mi16 km 10 mi16 km 10 mi16 km 10 mi16 km 10 mi16 km 10 mi16 km 10 mi16 km 10 mi16 km 5 mi8 km .5 mi1 km
Hour (CST)
Weather
Clouds
Temperature
Precip. Type
POP
Dewpoint
Humidity
Wind Direction
Wind Speed
Visibility
POP = Probability of Precipitation. ** Indicates missing data/values from model statistics.

24 Hour Forecast

Tonight - Mostly cloudy. A chance of rain and isolated thunderstorms after midnight. Lows in the upper 50s. South winds 5 mph in the evening, becoming light and variable after midnight. The chance of precipitation 40%. Average rainfall less than 1/10 inch.
Saturday - Cloudy. A chance of rain in the morning. Isolated thunderstorms during the day. A slight chance of rain in the afternoon. Highs in the upper 60s. Northeast winds 5 mph...With gusts to around 15 mph. The chance of precipitation 50%. Average rainfall less than 1/10 inch.

48 Hour Forecast API Feed


Fri, Dec 3
9:00 pm

Fri, Dec 3
10:00 pm

Fri, Dec 3
11:00 pm

Sat, Dec 4
Midnight

Sat, Dec 4
1:00 am

Sat, Dec 4
2:00 am

Sat, Dec 4
3:00 am

Sat, Dec 4
4:00 am

Sat, Dec 4
5:00 am

Sat, Dec 4
6:00 am

Sat, Dec 4
7:00 am

Sat, Dec 4
8:00 am

Sat, Dec 4
9:00 am

Sat, Dec 4
10:00 am

Sat, Dec 4
11:00 am

Sat, Dec 4
Noon

Sat, Dec 4
1:00 pm

Sat, Dec 4
2:00 pm

Sat, Dec 4
3:00 pm

Sat, Dec 4
4:00 pm

Sat, Dec 4
5:00 pm

Sat, Dec 4
6:00 pm

Sat, Dec 4
7:00 pm

Sat, Dec 4
8:00 pm

Sat, Dec 4
9:00 pm

Sat, Dec 4
10:00 pm

Sat, Dec 4
11:00 pm

Sun, Dec 5
Midnight

Sun, Dec 5
1:00 am

Sun, Dec 5
2:00 am

Sun, Dec 5
3:00 am

Sun, Dec 5
4:00 am

Sun, Dec 5
5:00 am

Sun, Dec 5
6:00 am

Sun, Dec 5
7:00 am

Sun, Dec 5
8:00 am

Sun, Dec 5
9:00 am

Sun, Dec 5
10:00 am

Sun, Dec 5
11:00 am

Sun, Dec 5
Noon

Sun, Dec 5
1:00 pm

Sun, Dec 5
2:00 pm

Sun, Dec 5
3:00 pm

Sun, Dec 5
4:00 pm

Sun, Dec 5
5:00 pm

Sun, Dec 5
6:00 pm

Sun, Dec 5
7:00 pm

Sun, Dec 5
8:00 pm
OvercastOvercastCloudyMistFogFogLight Rain ShowerLight Rain ShowerLight Rain ShowerLight Rain ShowerModerate Rain At TimesPatchy Rain PossibleOvercastLight Rain ShowerOvercastPatchy Rain PossiblePartly CloudyPartly CloudyPartly CloudyPartly CloudyPartly CloudyPartly CloudyPatchy Rain PossiblePatchy Rain PossiblePatchy Rain PossiblePatchy Rain PossiblePatchy Rain PossiblePatchy Light Rain With ThunderPatchy Rain PossiblePatchy Rain PossiblePartly CloudyMistMistLight Rain ShowerFogLight Rain ShowerLight Rain ShowerLight Rain ShowerOvercastLight Rain ShowerOvercastLight Rain ShowerLight Rain ShowerLight Rain ShowerLight Rain ShowerLight Rain ShowerLight Rain ShowerThundery Outbreaks Possible
Overcast Overcast Cloudy Mist Fog Fog Light rain showers Light rain showers Light rain showers Light rain showers Moderate rain at times Patchy rain possible Overcast Light rain showers Overcast Patchy rain possible Partly cloudy Partly cloudy Partly cloudy Partly cloudy Partly cloudy Partly cloudy Patchy rain possible Patchy rain possible Patchy rain possible Patchy rain possible Patchy rain possible Patchy light rain with thunder Patchy rain possible Patchy rain possible Partly cloudy Mist Mist Light rain showers Fog Light rain showers Light rain showers Light rain showers Overcast Light rain showers Overcast Light rain showers Light rain showers Light rain showers Light rain showers Light rain showers Light rain showers Thundery outbreaks possible
67°F
19°C
67°F
19°C
66°F
19°C
64°F
18°C
64°F
18°C
64°F
18°C
64°F
18°C
64°F
18°C
64°F
18°C
64°F
18°C
63°F
17°C
62°F
17°C
64°F
18°C
64°F
18°C
64°F
18°C
64°F
18°C
64°F
18°C
67°F
19°C
67°F
20°C
67°F
19°C
65°F
18°C
61°F
16°C
59°F
15°C
58°F
14°C
57°F
14°C
56°F
13°C
55°F
13°C
54°F
12°C
54°F
12°C
53°F
12°C
53°F
12°C
53°F
12°C
53°F
12°C
54°F
12°C
55°F
13°C
56°F
14°C
59°F
15°C
62°F
17°C
65°F
19°C
66°F
19°C
67°F
19°C
68°F
20°C
68°F
20°C
69°F
21°C
70°F
21°C
68°F
20°C
67°F
19°C
65°F
19°C
63°F
17°C
64°F
18°C
64°F
18°C
63°F
17°C
64°F
18°C
63°F
17°C
63°F
17°C
63°F
17°C
63°F
17°C
62°F
17°C
61°F
16°C
60°F
16°C
60°F
16°C
60°F
16°C
61°F
16°C
62°F
17°C
62°F
17°C
62°F
17°C
61°F
16°C
60°F
16°C
60°F
16°C
58°F
14°C
56°F
13°C
54°F
12°C
53°F
12°C
51°F
11°C
51°F
11°C
51°F
11°C
51°F
11°C
51°F
11°C
51°F
11°C
51°F
11°C
53°F
11°C
54°F
12°C
55°F
13°C
56°F
14°C
58°F
15°C
61°F
16°C
63°F
17°C
63°F
17°C
63°F
17°C
64°F
18°C
64°F
18°C
65°F
18°C
65°F
18°C
64°F
18°C
63°F
17°C
62°F
17°C
30 in
1016 mb
30 in
1016 mb
30 in
1016 mb
30 in
1016 mb
30 in
1016 mb
30 in
1016 mb
30.03 in
1017 mb
30 in
1016 mb
30 in
1016 mb
30.03 in
1017 mb
30.03 in
1017 mb
30.06 in
1018 mb
30.06 in
1018 mb
30.09 in
1019 mb
30.09 in
1019 mb
30.12 in
1020 mb
30.09 in
1019 mb
30.09 in
1019 mb
30.06 in
1018 mb
30.06 in
1018 mb
30.06 in
1018 mb
30.09 in
1019 mb
30.09 in
1019 mb
30.12 in
1020 mb
30.09 in
1019 mb
30.09 in
1019 mb
30.09 in
1019 mb
30.09 in
1019 mb
30.09 in
1019 mb
30.06 in
1018 mb
30.06 in
1018 mb
30.03 in
1017 mb
30 in
1016 mb
30 in
1016 mb
30 in
1016 mb
30 in
1016 mb
29.97 in
1015 mb
29.97 in
1015 mb
29.97 in
1015 mb
29.97 in
1015 mb
29.91 in
1013 mb
29.88 in
1012 mb
29.85 in
1011 mb
29.85 in
1011 mb
29.85 in
1011 mb
29.85 in
1011 mb
29.85 in
1011 mb
29.85 in
1011 mb
88%90%92%97%98%98%98%99%97%93%93%92%88%86%90%93%93%85%80%80%84%89%88%88%87%86%87%90%91%91%93%95%97%98%99%99%98%95%91%89%89%88%88%87%84%87%89%89%
SWSWSWSWSWSWWSWWSWWWWWWNEENENNWENENEENEENENENEENEENEENEENEENEEEENEEESEESESESSESSWSSWSSWSWSWSWSSWSSWSSWSSWSS
7 mph
12 km/h
6 mph
10 km/h
5 mph
8 km/h
4 mph
7 km/h
5 mph
8 km/h
5 mph
8 km/h
5 mph
8 km/h
4 mph
6 km/h
6 mph
10 km/h
6 mph
10 km/h
4 mph
6 km/h
4 mph
6 km/h
3 mph
5 km/h
4 mph
6 km/h
4 mph
7 km/h
1 mph
2 km/h
2 mph
3 km/h
3 mph
4 km/h
5 mph
8 km/h
6 mph
10 km/h
6 mph
10 km/h
6 mph
10 km/h
7 mph
11 km/h
6 mph
10 km/h
7 mph
11 km/h
6 mph
10 km/h
5 mph
8 km/h
4 mph
6 km/h
5 mph
8 km/h
4 mph
7 km/h
4 mph
7 km/h
4 mph
7 km/h
3 mph
5 km/h
3 mph
5 km/h
3 mph
5 km/h
3 mph
5 km/h
4 mph
7 km/h
8 mph
13 km/h
10 mph
16 km/h
11 mph
17 km/h
10 mph
17 km/h
10 mph
17 km/h
10 mph
16 km/h
9 mph
14 km/h
9 mph
15 km/h
8 mph
13 km/h
7 mph
11 km/h
8 mph
13 km/h
0%0%0%0%0%0%80%62%78%82%72%85%0%84%0%80%0%0%0%0%0%0%73%80%72%78%80%61%72%63%0%71%0%68%0%71%69%76%0%89%0%70%72%88%62%60%88%0%
6 mi
10 km
6 mi
10 km
6 mi
10 km
1 mi
2 km
0 mi
0 km
0 mi
0 km
6 mi
10 km
6 mi
10 km
6 mi
10 km
6 mi
10 km
5 mi
8 km
6 mi
10 km
6 mi
10 km
6 mi
10 km
6 mi
10 km
6 mi
10 km
6 mi
10 km
6 mi
10 km
6 mi
10 km
6 mi
10 km
6 mi
10 km
6 mi
10 km
6 mi
10 km
6 mi
9 km
6 mi
9 km
6 mi
9 km
6 mi
9 km
6 mi
10 km
6 mi
9 km
6 mi
10 km
6 mi
10 km
1 mi
2 km
1 mi
2 km
6 mi
10 km
0 mi
0 km
6 mi
10 km
6 mi
10 km
6 mi
10 km
6 mi
10 km
6 mi
10 km
6 mi
10 km
6 mi
10 km
6 mi
10 km
6 mi
10 km
6 mi
10 km
6 mi
10 km
6 mi
10 km
6 mi
9 km

Day/Time
Weather
Condition
Temperature
Dew Point
Pressure
Humidity
Wind Direction
Wind Speed
Prob Precip %
Visibility
Prob Precip % = Probability of Precipitation.